Retour au catalogue

CZ-6A DEB

ActifSSO
NORAD 54343·DEBRIS·🇨🇳 China

Lancé Nov 11, 2022 depuis Taiyuan Satellite Launch Center

Loading…

Prochains Passages (prochaines 24 heures)

TLE

FraisSource: Space-Track

Époque: Sep 14, 2026, 05:58 UTC

1 54343U 22151CN  26257.24873940  .00000037  00000-0  44416-4 0  9992
2 54343  98.8422 256.9638 0042852  86.0325 274.5743 14.10740432197081

Suivez CZ-6A DEB en temps réel avec AllMySat

Download on the App Store